Time,TemperatureF,DewpointF,PressureIn,WindDirection,WindDirectionDegrees,WindSpeedMPH,WindSpeedGustMPH,Humidity,HourlyPrecipIn,Conditions,Clouds,dailyrainin,SoftwareType,DateUTC
2013-05-02 00:01:00,56.5,40.6,30.33,SE,128,4.5,4.5,55,0.00,,---,0.00,VWS V14.01,2013-05-02 04:01:00,
2013-05-02 00:02:00,56.5,40.6,30.33,SE,128,0.0,4.5,55,0.00,,---,0.00,VWS V14.01,2013-05-02 04:02:00,
2013-05-02 00:03:00,56.5,40.6,30.33,SE,128,0.0,4.5,55,0.00,,---,0.00,VWS V14.01,2013-05-02 04:03:00,
2013-05-02 00:05:00,56.5,40.6,30.33,SE,142,0.0,4.5,55,0.00,,---,0.00,VWS V14.01,2013-05-02 04:05:00,
2013-05-02 00:10:00,56.5,40.6,30.33,SE,140,0.0,4.5,55,0.00,,---,0.00,VWS V14.01,2013-05-02 04:10:00,
2013-05-02 00:15:00,56.3,39.9,30.33,SE,140,0.0,4.5,54,0.00,,---,0.00,VWS V14.01,2013-05-02 04:15:00,
2013-05-02 00:16:00,56.3,39.9,30.33,SE,140,0.0,4.5,54,0.00,,---,0.00,VWS V14.01,2013-05-02 04:16:00,
2013-05-02 00:21:00,56.3,39.9,30.33,ESE,114,0.0,4.5,54,0.00,,---,0.00,VWS V14.01,2013-05-02 04:21:00,
2013-05-02 00:26:00,56.3,39.9,30.33,SE,144,0.0,4.9,54,0.00,,---,0.00,VWS V14.01,2013-05-02 04:26:00,
2013-05-02 00:31:00,56.3,39.9,30.33,East,98,0.0,4.9,54,0.00,,---,0.00,VWS V14.01,2013-05-02 04:31:00,
2013-05-02 00:36:00,56.3,39.9,30.33,East,99,0.0,4.9,54,0.00,,---,0.00,VWS V14.01,2013-05-02 04:36:00,
2013-05-02 00:42:00,56.3,39.9,30.33,East,99,0.0,4.9,54,0.00,,---,0.00,VWS V14.01,2013-05-02 04:42:00,
2013-05-02 00:47:00,56.1,39.7,30.33,East,99,0.0,4.9,54,0.00,,---,0.00,VWS V14.01,2013-05-02 04:47:00,
2013-05-02 00:52:00,55.9,39.5,30.33,East,99,0.0,4.9,54,0.00,,---,0.00,VWS V14.01,2013-05-02 04:52:00,
2013-05-02 00:57:00,55.9,39.5,30.33,ESE,112,0.0,4.9,54,0.00,,---,0.00,VWS V14.01,2013-05-02 04:57:00,
2013-05-02 01:02:00,55.9,39.5,30.33,ESE,112,0.0,0.0,54,0.00,,---,0.00,VWS V14.01,2013-05-02 05:02:00,
2013-05-02 01:07:00,55.8,39.4,30.33,ESE,112,0.0,0.0,54,0.00,,---,0.00,VWS V14.01,2013-05-02 05:07:00,
2013-05-02 01:12:00,55.8,39.9,30.33,ESE,112,0.0,0.0,55,0.00,,---,0.00,VWS V14.01,2013-05-02 05:12:00,
2013-05-02 01:17:00,55.6,39.7,30.33,ESE,112,0.0,0.0,55,0.00,,---,0.00,VWS V14.01,2013-05-02 05:17:00,
2013-05-02 01:22:00,55.6,39.7,30.33,ESE,112,0.0,0.0,55,0.00,,---,0.00,VWS V14.01,2013-05-02 05:22:00,
2013-05-02 01:27:00,55.4,39.6,30.33,ESE,112,0.0,0.0,55,0.00,,---,0.00,VWS V14.01,2013-05-02 05:27:00,
2013-05-02 01:32:00,55.2,39.9,30.33,ESE,112,0.0,0.0,56,0.00,,---,0.00,VWS V14.01,2013-05-02 05:32:00,
2013-05-02 01:37:00,55.2,40.4,30.33,ESE,112,0.0,0.0,57,0.00,,---,0.00,VWS V14.01,2013-05-02 05:37:00,
2013-05-02 01:42:00,55.0,40.2,30.33,ESE,112,0.0,0.0,57,0.00,,---,0.00,VWS V14.01,2013-05-02 05:42:00,
2013-05-02 01:47:00,55.0,40.2,30.33,ESE,112,0.0,0.0,57,0.00,,---,0.00,VWS V14.01,2013-05-02 05:47:00,
2013-05-02 01:52:00,55.0,40.2,30.33,ESE,113,0.0,0.0,57,0.00,,---,0.00,VWS V14.01,2013-05-02 05:52:00,
2013-05-02 01:57:00,55.0,40.2,30.33,ESE,113,0.0,0.0,57,0.00,,---,0.00,VWS V14.01,2013-05-02 05:57:00,
2013-05-02 02:02:00,55.0,40.2,30.33,ESE,117,0.0,0.0,57,0.00,,---,0.00,VWS V14.01,2013-05-02 06:02:00,
2013-05-02 02:07:00,55.0,40.2,30.33,ESE,118,0.0,0.0,57,0.00,,---,0.00,VWS V14.01,2013-05-02 06:07:00,
2013-05-02 02:12:00,55.0,40.2,30.33,ESE,123,0.0,0.0,57,0.00,,---,0.00,VWS V14.01,2013-05-02 06:12:00,
2013-05-02 02:17:00,55.0,40.2,30.33,ESE,123,0.0,0.0,57,0.00,,---,0.00,VWS V14.01,2013-05-02 06:17:00,
2013-05-02 02:22:00,55.0,40.2,30.33,SE,124,0.0,0.0,57,0.00,,---,0.00,VWS V14.01,2013-05-02 06:22:00,
2013-05-02 02:27:00,55.0,40.2,30.33,SE,124,0.0,0.0,57,0.00,,---,0.00,VWS V14.01,2013-05-02 06:27:00,
2013-05-02 02:32:00,55.0,40.2,30.33,SE,124,0.0,0.0,57,0.00,,---,0.00,VWS V14.01,2013-05-02 06:32:00,
2013-05-02 02:37:00,54.9,40.0,30.33,SE,124,0.0,0.0,57,0.00,,---,0.00,VWS V14.01,2013-05-02 06:37:00,
2013-05-02 02:42:00,54.9,40.0,30.33,SE,124,0.0,0.0,57,0.00,,---,0.00,VWS V14.01,2013-05-02 06:42:00,
2013-05-02 02:47:00,54.7,39.9,30.33,SE,124,0.0,0.0,57,0.00,,---,0.00,VWS V14.01,2013-05-02 06:47:00,
2013-05-02 02:52:00,54.5,40.2,30.33,SE,124,0.0,0.0,58,0.00,,---,0.00,VWS V14.01,2013-05-02 06:52:00,
2013-05-02 02:57:00,54.5,40.7,30.33,SE,124,0.0,0.0,59,0.00,,---,0.00,VWS V14.01,2013-05-02 06:57:00,
2013-05-02 03:02:00,54.5,41.1,30.30,ESE,123,0.0,0.0,60,0.00,,---,0.00,VWS V14.01,2013-05-02 07:02:00,
2013-05-02 03:07:00,54.5,41.1,30.30,East,100,0.0,0.0,60,0.00,,---,0.00,VWS V14.01,2013-05-02 07:07:00,
2013-05-02 03:12:00,54.5,41.1,30.30,East,100,0.0,0.0,60,0.00,,---,0.00,VWS V14.01,2013-05-02 07:12:00,
2013-05-02 03:17:00,54.5,41.1,30.30,East,100,0.0,0.0,60,0.00,,---,0.00,VWS V14.01,2013-05-02 07:17:00,
2013-05-02 03:22:00,54.5,41.1,30.30,ESE,104,0.0,0.0,60,0.00,,---,0.00,VWS V14.01,2013-05-02 07:22:00,
2013-05-02 03:27:00,54.7,41.3,30.30,ESE,104,0.0,0.0,60,0.00,,---,0.00,VWS V14.01,2013-05-02 07:27:00,
2013-05-02 03:32:00,54.5,41.1,30.30,ESE,104,0.0,0.0,60,0.00,,---,0.00,VWS V14.01,2013-05-02 07:32:00,
2013-05-02 03:37:00,54.5,41.1,30.30,ESE,104,0.0,0.0,60,0.00,,---,0.00,VWS V14.01,2013-05-02 07:37:00,
2013-05-02 03:42:00,54.5,41.1,30.30,ESE,104,0.0,0.0,60,0.00,,---,0.00,VWS V14.01,2013-05-02 07:42:00,
2013-05-02 03:47:00,54.3,41.0,30.30,ESE,104,0.0,0.0,60,0.00,,---,0.00,VWS V14.01,2013-05-02 07:47:00,
2013-05-02 03:52:00,54.3,41.4,30.30,ESE,104,0.0,0.0,62,0.00,,---,0.00,VWS V14.01,2013-05-02 07:52:00,
2013-05-02 03:57:00,54.3,41.4,30.30,ESE,113,0.0,0.0,62,0.00,,---,0.00,VWS V14.01,2013-05-02 07:57:00,
2013-05-02 04:02:00,54.3,41.4,30.30,ESE,113,0.0,0.0,62,0.00,,---,0.00,VWS V14.01,2013-05-02 08:02:00,
2013-05-02 04:07:00,54.1,41.2,30.30,ESE,113,0.0,0.0,62,0.00,,---,0.00,VWS V14.01,2013-05-02 08:07:00,
2013-05-02 04:12:00,54.1,41.7,30.30,ESE,113,0.0,0.0,63,0.00,,---,0.00,VWS V14.01,2013-05-02 08:12:00,
2013-05-02 04:18:00,54.1,41.7,30.30,ESE,113,0.0,0.0,63,0.00,,---,0.00,VWS V14.01,2013-05-02 08:18:00,
2013-05-02 04:23:00,54.1,41.7,30.30,ESE,113,0.0,0.0,63,0.00,,---,0.00,VWS V14.01,2013-05-02 08:23:00,
2013-05-02 04:28:00,54.1,42.1,30.30,ESE,113,0.0,0.0,64,0.00,,---,0.00,VWS V14.01,2013-05-02 08:28:00,
2013-05-02 04:33:00,54.1,42.1,30.30,ESE,113,0.0,0.0,64,0.00,,---,0.00,VWS V14.01,2013-05-02 08:33:00,
2013-05-02 04:38:00,54.1,42.1,30.30,ESE,113,0.0,0.0,64,0.00,,---,0.00,VWS V14.01,2013-05-02 08:38:00,
2013-05-02 04:43:00,54.1,42.1,30.30,ESE,113,0.0,0.0,64,0.00,,---,0.00,VWS V14.01,2013-05-02 08:43:00,
2013-05-02 04:48:00,54.1,42.1,30.30,ESE,113,0.0,0.0,64,0.00,,---,0.00,VWS V14.01,2013-05-02 08:48:00,
2013-05-02 04:53:00,54.1,42.1,30.30,ESE,113,0.0,0.0,64,0.00,,---,0.00,VWS V14.01,2013-05-02 08:53:00,
2013-05-02 04:58:00,54.3,42.7,30.30,ESE,113,0.0,0.0,65,0.00,,---,0.00,VWS V14.01,2013-05-02 08:58:00,
2013-05-02 05:03:00,54.3,42.7,30.30,ESE,113,0.0,0.0,65,0.00,,---,0.00,VWS V14.01,2013-05-02 09:03:00,
2013-05-02 05:08:00,54.3,42.7,30.30,ESE,113,0.0,0.0,65,0.00,,---,0.00,VWS V14.01,2013-05-02 09:08:00,
2013-05-02 05:13:00,54.1,42.6,30.30,ESE,113,0.0,0.0,65,0.00,,---,0.00,VWS V14.01,2013-05-02 09:13:00,
2013-05-02 05:18:00,54.1,42.6,30.30,ESE,113,0.0,0.0,65,0.00,,---,0.00,VWS V14.01,2013-05-02 09:18:00,
2013-05-02 05:23:00,54.0,42.4,30.30,ESE,113,0.0,0.0,65,0.00,,---,0.00,VWS V14.01,2013-05-02 09:23:00,
2013-05-02 05:28:00,54.0,42.4,30.30,ESE,113,0.0,0.0,65,0.00,,---,0.00,VWS V14.01,2013-05-02 09:28:00,
2013-05-02 05:33:00,53.8,42.2,30.30,ESE,113,0.0,0.0,65,0.00,,---,0.00,VWS V14.01,2013-05-02 09:33:00,
2013-05-02 05:38:00,53.6,42.0,30.30,ESE,113,0.0,0.0,65,0.00,,---,0.00,VWS V14.01,2013-05-02 09:38:00,
2013-05-02 05:43:00,53.6,42.0,30.30,ESE,113,0.0,0.0,65,0.00,,---,0.00,VWS V14.01,2013-05-02 09:43:00,
2013-05-02 05:48:00,53.4,41.9,30.30,ESE,113,0.0,0.0,65,0.00,,---,0.00,VWS V14.01,2013-05-02 09:48:00,
2013-05-02 05:53:00,53.2,42.1,30.30,ESE,113,0.0,0.0,66,0.00,,---,0.00,VWS V14.01,2013-05-02 09:53:00,
2013-05-02 05:58:00,53.2,42.1,30.30,ESE,113,0.0,0.0,66,0.00,,---,0.00,VWS V14.01,2013-05-02 09:58:00,
2013-05-02 06:03:00,53.4,42.7,30.30,ESE,113,0.0,0.0,67,0.00,,---,0.00,VWS V14.01,2013-05-02 10:03:00,
2013-05-02 06:08:00,53.6,42.9,30.30,ESE,113,0.0,0.0,67,0.00,,---,0.00,VWS V14.01,2013-05-02 10:08:00,
2013-05-02 06:13:00,53.8,43.1,30.30,ESE,113,0.0,0.0,67,0.00,,---,0.00,VWS V14.01,2013-05-02 10:13:00,
2013-05-02 06:18:00,53.8,43.1,30.30,ESE,113,0.0,0.0,67,0.00,,---,0.00,VWS V14.01,2013-05-02 10:18:00,
2013-05-02 06:23:00,54.0,43.2,30.30,ESE,113,0.0,0.0,67,0.00,,---,0.00,VWS V14.01,2013-05-02 10:23:00,
2013-05-02 06:28:00,54.0,42.8,30.30,ESE,113,0.0,0.0,66,0.00,,---,0.00,VWS V14.01,2013-05-02 10:28:00,
2013-05-02 06:33:00,53.8,42.7,30.30,ESE,113,0.0,0.0,66,0.00,,---,0.00,VWS V14.01,2013-05-02 10:33:00,
2013-05-02 06:38:00,53.6,42.5,30.30,ESE,113,0.0,0.0,66,0.00,,---,0.00,VWS V14.01,2013-05-02 10:38:00,
2013-05-02 06:44:00,53.4,42.3,30.30,ESE,113,0.0,0.0,66,0.00,,---,0.00,VWS V14.01,2013-05-02 10:44:00,
2013-05-02 06:49:00,53.4,42.3,30.30,ESE,113,0.0,0.0,66,0.00,,---,0.00,VWS V14.01,2013-05-02 10:49:00,
2013-05-02 06:54:00,53.6,42.5,30.30,ESE,113,0.0,0.0,66,0.00,,---,0.00,VWS V14.01,2013-05-02 10:54:00,
2013-05-02 06:59:00,53.8,43.1,30.30,ESE,113,0.0,0.0,67,0.00,,---,0.00,VWS V14.01,2013-05-02 10:59:00,
2013-05-02 07:04:00,54.1,43.0,30.30,ESE,113,0.0,0.0,66,0.00,,---,0.00,VWS V14.01,2013-05-02 11:04:00,
2013-05-02 07:09:00,54.7,43.1,30.30,ESE,113,0.0,0.0,65,0.00,,---,0.00,VWS V14.01,2013-05-02 11:09:00,
2013-05-02 07:14:00,55.0,43.4,30.30,ESE,113,0.0,0.0,65,0.00,,---,0.00,VWS V14.01,2013-05-02 11:14:00,
2013-05-02 07:19:00,55.2,42.7,30.33,ESE,113,0.0,0.0,63,0.00,,---,0.00,VWS V14.01,2013-05-02 11:19:00,
2013-05-02 07:24:00,55.8,41.8,30.33,ESE,115,0.0,0.0,59,0.00,,---,0.00,VWS V14.01,2013-05-02 11:24:00,
2013-05-02 07:29:00,56.5,41.6,30.33,ESE,116,0.0,0.0,57,0.00,,---,0.00,VWS V14.01,2013-05-02 11:29:00,
2013-05-02 07:34:00,56.8,41.4,30.33,ESE,117,0.0,0.0,56,0.00,,---,0.00,VWS V14.01,2013-05-02 11:34:00,
2013-05-02 07:39:00,57.4,40.4,30.33,ESE,113,0.0,0.0,53,0.00,,---,0.00,VWS V14.01,2013-05-02 11:39:00,
2013-05-02 07:44:00,57.9,40.3,30.33,ESE,112,0.0,0.0,52,0.00,,---,0.00,VWS V14.01,2013-05-02 11:44:00,
2013-05-02 07:49:00,58.5,39.7,30.33,SSE,158,3.1,4.0,50,0.00,,---,0.00,VWS V14.01,2013-05-02 11:49:00,
2013-05-02 07:54:00,59.0,39.7,30.33,SE,127,0.0,5.4,49,0.00,,---,0.00,VWS V14.01,2013-05-02 11:54:00,
2013-05-02 07:59:00,59.4,39.4,30.33,SE,143,3.6,5.8,48,0.00,,---,0.00,VWS V14.01,2013-05-02 11:59:00,
2013-05-02 08:04:00,59.9,39.9,30.33,SE,128,4.0,4.5,48,0.00,,---,0.00,VWS V14.01,2013-05-02 12:04:00,
2013-05-02 08:09:00,60.3,39.7,30.33,SE,126,2.7,5.8,46,0.00,,---,0.00,VWS V14.01,2013-05-02 12:09:00,
2013-05-02 08:14:00,60.6,39.4,30.33,SE,132,0.0,5.8,45,0.00,,---,0.00,VWS V14.01,2013-05-02 12:14:00,
2013-05-02 08:19:00,61.0,39.1,30.33,SE,138,3.6,5.8,44,0.00,,---,0.00,VWS V14.01,2013-05-02 12:19:00,
2013-05-02 08:24:00,61.3,39.4,30.33,South,172,3.6,5.8,44,0.00,,---,0.00,VWS V14.01,2013-05-02 12:24:00,
2013-05-02 08:29:00,62.1,40.1,30.33,West,274,0.0,5.8,44,0.00,,---,0.00,VWS V14.01,2013-05-02 12:29:00,
2013-05-02 08:34:00,62.8,39.4,30.33,SE,145,0.0,5.8,42,0.00,,---,0.00,VWS V14.01,2013-05-02 12:34:00,
2013-05-02 08:39:00,63.5,40.8,30.33,SE,124,0.0,5.8,43,0.00,,---,0.00,VWS V14.01,2013-05-02 12:39:00,
2013-05-02 08:44:00,64.0,40.6,30.33,SSE,163,2.2,5.8,42,0.00,,---,0.00,VWS V14.01,2013-05-02 12:44:00,
2013-05-02 08:49:00,64.8,39.9,30.33,SE,143,0.0,5.8,40,0.00,,---,0.00,VWS V14.01,2013-05-02 12:49:00,
2013-05-02 08:54:00,65.1,39.5,30.33,SE,125,3.1,6.3,39,0.00,,---,0.00,VWS V14.01,2013-05-02 12:54:00,
2013-05-02 08:59:00,65.7,40.7,30.33,South,174,0.0,6.3,40,0.00,,---,0.00,VWS V14.01,2013-05-02 12:59:00,
2013-05-02 09:04:00,65.8,39.4,30.33,SW,220,2.2,4.9,38,0.00,,---,0.00,VWS V14.01,2013-05-02 13:04:00,
2013-05-02 09:09:00,66.2,40.5,30.33,SSW,194,3.1,4.9,39,0.00,,---,0.00,VWS V14.01,2013-05-02 13:09:00,
2013-05-02 09:14:00,66.6,40.8,30.33,SSW,210,3.6,4.9,39,0.00,,---,0.00,VWS V14.01,2013-05-02 13:14:00,
2013-05-02 09:19:00,67.1,40.5,30.33,SE,142,0.0,5.8,38,0.00,,---,0.00,VWS V14.01,2013-05-02 13:19:00,
2013-05-02 09:24:00,67.3,40.0,30.33,SW,222,2.7,5.8,37,0.00,,---,0.00,VWS V14.01,2013-05-02 13:24:00,
2013-05-02 09:29:00,67.6,41.0,30.33,SSW,198,3.6,5.8,38,0.00,,---,0.00,VWS V14.01,2013-05-02 13:29:00,
2013-05-02 09:34:00,68.0,42.1,30.33,SW,214,2.2,6.3,39,0.00,,---,0.00,VWS V14.01,2013-05-02 13:34:00,
2013-05-02 09:39:00,68.5,42.5,30.33,SSW,196,0.0,6.3,39,0.00,,---,0.00,VWS V14.01,2013-05-02 13:39:00,
2013-05-02 09:44:00,69.1,41.5,30.33,South,179,0.0,6.3,37,0.00,,---,0.00,VWS V14.01,2013-05-02 13:44:00,
2013-05-02 09:49:00,69.4,41.9,30.33,SSW,211,0.0,6.3,37,0.00,,---,0.00,VWS V14.01,2013-05-02 13:49:00,
2013-05-02 09:54:00,69.6,41.2,30.33,SSW,210,0.0,6.3,36,0.00,,---,0.00,VWS V14.01,2013-05-02 13:54:00,
2013-05-02 09:59:00,70.0,41.6,30.33,South,169,4.9,6.3,36,0.00,,---,0.00,VWS V14.01,2013-05-02 13:59:00,
2013-05-02 10:04:00,70.5,42.0,30.33,South,178,0.0,6.3,36,0.00,,---,0.00,VWS V14.01,2013-05-02 14:04:00,
2013-05-02 10:09:00,71.1,42.5,30.33,South,183,2.2,6.3,36,0.00,,---,0.00,VWS V14.01,2013-05-02 14:09:00,
2013-05-02 10:15:00,71.6,42.2,30.33,SSW,204,0.0,6.3,35,0.00,,---,0.00,VWS V14.01,2013-05-02 14:15:00,
2013-05-02 10:20:00,72.0,41.7,30.33,South,190,0.0,6.3,33,0.00,,---,0.00,VWS V14.01,2013-05-02 14:20:00,
2013-05-02 10:25:00,72.5,41.3,30.33,South,185,3.1,6.3,32,0.00,,---,0.00,VWS V14.01,2013-05-02 14:25:00,
2013-05-02 10:30:00,73.0,42.6,30.33,SSW,202,2.7,6.3,33,0.00,,---,0.00,VWS V14.01,2013-05-02 14:30:00,
2013-05-02 10:35:00,73.6,43.1,30.33,SSW,192,3.1,6.3,33,0.00,,---,0.00,VWS V14.01,2013-05-02 14:35:00,
2013-05-02 10:40:00,74.3,43.7,30.33,SSE,164,3.1,6.7,33,0.00,,---,0.00,VWS V14.01,2013-05-02 14:40:00,
2013-05-02 10:45:00,75.0,41.7,30.33,SW,219,3.6,6.7,30,0.00,,---,0.00,VWS V14.01,2013-05-02 14:45:00,
2013-05-02 10:50:00,74.7,38.5,30.33,SSW,204,2.2,6.7,27,0.00,,---,0.00,VWS V14.01,2013-05-02 14:50:00,
2013-05-02 10:55:00,74.7,38.5,30.33,SW,222,0.0,6.7,27,0.00,,---,0.00,VWS V14.01,2013-05-02 14:55:00,
2013-05-02 11:00:00,74.7,40.5,30.33,South,177,4.0,4.0,29,0.00,,---,0.00,VWS V14.01,2013-05-02 15:00:00,
2013-05-02 11:05:00,74.8,40.6,30.33,SSW,211,4.9,5.4,29,0.00,,---,0.00,VWS V14.01,2013-05-02 15:05:00,
2013-05-02 11:10:00,75.0,39.8,30.33,South,187,3.6,7.6,28,0.00,,---,0.00,VWS V14.01,2013-05-02 15:10:00,
2013-05-02 11:15:00,75.2,40.0,30.33,SSW,192,0.0,7.6,28,0.00,,---,0.00,VWS V14.01,2013-05-02 15:15:00,
2013-05-02 11:20:00,75.7,40.4,30.33,SSW,203,3.6,7.6,28,0.00,,---,0.00,VWS V14.01,2013-05-02 15:20:00,
2013-05-02 11:25:00,76.1,40.7,30.33,SSW,207,4.0,7.6,28,0.00,,---,0.00,VWS V14.01,2013-05-02 15:25:00,
2013-05-02 11:30:00,75.9,38.5,30.33,SSE,168,5.4,7.6,26,0.00,,---,0.00,VWS V14.01,2013-05-02 15:30:00,
2013-05-02 11:35:00,76.3,39.9,30.33,SSE,159,3.1,7.6,27,0.00,,---,0.00,VWS V14.01,2013-05-02 15:35:00,
2013-05-02 11:40:00,75.9,38.5,30.33,SW,227,4.0,7.6,26,0.00,,---,0.00,VWS V14.01,2013-05-02 15:40:00,
2013-05-02 11:45:00,75.7,38.4,30.33,SW,219,3.6,7.6,26,0.00,,---,0.00,VWS V14.01,2013-05-02 15:45:00,
2013-05-02 11:50:00,75.7,37.3,30.33,SSW,210,3.1,8.1,25,0.00,,---,0.00,VWS V14.01,2013-05-02 15:50:00,
2013-05-02 11:55:00,75.7,40.4,30.33,SSW,210,4.5,8.1,28,0.00,,---,0.00,VWS V14.01,2013-05-02 15:55:00,
2013-05-02 12:00:00,75.9,39.6,30.33,SW,218,3.1,3.6,27,0.00,,---,0.00,VWS V14.01,2013-05-02 16:00:00,
2013-05-02 12:05:00,75.9,38.5,30.33,SE,146,4.0,5.8,26,0.00,,---,0.00,VWS V14.01,2013-05-02 16:05:00,
2013-05-02 12:10:00,76.5,39.0,30.33,SE,129,0.0,5.8,26,0.00,,---,0.00,VWS V14.01,2013-05-02 16:10:00,
2013-05-02 12:15:00,76.5,40.0,30.33,SW,214,2.2,8.7,27,0.00,,---,0.00,VWS V14.01,2013-05-02 16:15:00,
2013-05-02 12:20:00,76.5,37.9,30.33,South,177,7.6,8.7,25,0.00,,---,0.00,VWS V14.01,2013-05-02 16:20:00,
2013-05-02 12:25:00,76.8,38.2,30.33,South,182,4.0,8.7,25,0.00,,---,0.00,VWS V14.01,2013-05-02 16:25:00,
2013-05-02 12:30:00,76.8,39.3,30.33,SSE,156,3.6,8.7,26,0.00,,---,0.00,VWS V14.01,2013-05-02 16:30:00,
2013-05-02 12:35:00,76.6,40.2,30.33,SSW,212,4.0,8.7,27,0.00,,---,0.00,VWS V14.01,2013-05-02 16:35:00,
2013-05-02 12:40:00,76.8,38.2,30.33,SW,228,3.1,8.7,25,0.00,,---,0.00,VWS V14.01,2013-05-02 16:40:00,
2013-05-02 12:45:00,77.2,39.6,30.33,SE,124,4.0,8.7,26,0.00,,---,0.00,VWS V14.01,2013-05-02 16:45:00,
2013-05-02 12:50:00,77.0,37.2,30.33,SW,216,6.3,8.7,24,0.00,,---,0.00,VWS V14.01,2013-05-02 16:50:00,
2013-05-02 12:55:00,76.6,38.0,30.33,SW,216,2.7,8.7,25,0.00,,---,0.00,VWS V14.01,2013-05-02 16:55:00,
2013-05-02 13:00:00,76.6,38.0,30.33,SW,227,2.7,4.0,25,0.00,,---,0.00,VWS V14.01,2013-05-02 17:00:00,
2013-05-02 13:05:00,77.2,38.5,30.33,SSW,206,2.7,6.3,25,0.00,,---,0.00,VWS V14.01,2013-05-02 17:05:00,
2013-05-02 13:10:00,77.2,36.2,30.33,SSE,162,2.2,6.3,23,0.00,,---,0.00,VWS V14.01,2013-05-02 17:10:00,
2013-05-02 13:15:00,77.4,37.5,30.33,SSW,194,3.6,6.3,24,0.00,,---,0.00,VWS V14.01,2013-05-02 17:15:00,
2013-05-02 13:20:00,77.7,39.0,30.33,SSW,192,6.3,6.3,25,0.00,,---,0.00,VWS V14.01,2013-05-02 17:20:00,
2013-05-02 13:25:00,77.9,38.0,30.33,SSW,200,4.0,6.3,24,0.00,,---,0.00,VWS V14.01,2013-05-02 17:25:00,
2013-05-02 13:30:00,78.1,39.3,30.33,ESE,107,2.7,6.3,25,0.00,,---,0.00,VWS V14.01,2013-05-02 17:30:00,
2013-05-02 13:35:00,78.1,39.3,30.33,West,262,4.0,6.3,25,0.00,,---,0.00,VWS V14.01,2013-05-02 17:35:00,
2013-05-02 13:41:00,77.5,39.9,30.33,SW,225,3.6,8.7,26,0.00,,---,0.00,VWS V14.01,2013-05-02 17:41:00,
2013-05-02 13:46:00,77.4,41.8,30.33,East,98,5.8,8.7,28,0.00,,---,0.00,VWS V14.01,2013-05-02 17:46:00,
2013-05-02 13:51:00,77.2,38.5,30.33,SE,141,4.0,8.7,25,0.00,,---,0.00,VWS V14.01,2013-05-02 17:51:00,
2013-05-02 13:56:00,77.5,37.7,30.33,SW,232,4.0,8.7,24,0.00,,---,0.00,VWS V14.01,2013-05-02 17:56:00,
2013-05-02 14:01:00,77.7,37.8,30.33,ESE,114,3.6,3.6,24,0.00,,---,0.00,VWS V14.01,2013-05-02 18:01:00,
2013-05-02 14:06:00,77.7,37.8,30.33,SSW,198,0.0,5.4,24,0.00,,---,0.00,VWS V14.01,2013-05-02 18:06:00,
2013-05-02 14:11:00,77.9,39.1,30.33,South,171,2.7,7.6,25,0.00,,---,0.00,VWS V14.01,2013-05-02 18:11:00,
2013-05-02 14:16:00,78.3,39.4,30.33,SSE,159,4.9,8.1,25,0.00,,---,0.00,VWS V14.01,2013-05-02 18:16:00,
2013-05-02 14:21:00,77.9,38.0,30.30,SE,144,0.0,8.1,24,0.00,,---,0.00,VWS V14.01,2013-05-02 18:21:00,
2013-05-02 14:26:00,77.5,37.7,30.30,East,100,7.6,8.1,24,0.00,,---,0.00,VWS V14.01,2013-05-02 18:26:00,
2013-05-02 14:31:00,77.5,37.7,30.30,SW,228,4.0,8.1,24,0.00,,---,0.00,VWS V14.01,2013-05-02 18:31:00,
2013-05-02 14:36:00,77.5,36.5,30.30,SSW,200,5.4,8.1,23,0.00,,---,0.00,VWS V14.01,2013-05-02 18:36:00,
2013-05-02 14:41:00,77.4,37.5,30.30,SW,233,4.9,8.1,24,0.00,,---,0.00,VWS V14.01,2013-05-02 18:41:00,
2013-05-02 14:46:00,77.7,39.0,30.30,SE,145,3.1,8.1,25,0.00,,---,0.00,VWS V14.01,2013-05-02 18:46:00,
2013-05-02 14:51:00,77.7,39.0,30.30,ESE,116,6.7,8.1,25,0.00,,---,0.00,VWS V14.01,2013-05-02 18:51:00,
2013-05-02 14:56:00,77.4,38.7,30.30,ESE,106,7.6,8.7,25,0.00,,---,0.00,VWS V14.01,2013-05-02 18:56:00,
2013-05-02 15:01:00,77.5,38.8,30.30,SSW,213,5.8,5.8,25,0.00,,---,0.00,VWS V14.01,2013-05-02 19:01:00,
2013-05-02 15:06:00,77.4,38.7,30.30,East,89,5.4,5.8,25,0.00,,---,0.00,VWS V14.01,2013-05-02 19:06:00,
2013-05-02 15:11:00,77.4,37.5,30.30,SE,141,8.1,8.1,24,0.00,,---,0.00,VWS V14.01,2013-05-02 19:11:00,
2013-05-02 15:16:00,76.6,38.0,30.30,SE,142,5.8,8.1,25,0.00,,---,0.00,VWS V14.01,2013-05-02 19:16:00,
2013-05-02 15:21:00,76.5,39.0,30.30,SSE,168,3.6,8.1,26,0.00,,---,0.00,VWS V14.01,2013-05-02 19:21:00,
2013-05-02 15:26:00,76.6,38.0,30.30,SW,219,2.7,8.1,25,0.00,,---,0.00,VWS V14.01,2013-05-02 19:26:00,
2013-05-02 15:31:00,77.2,37.4,30.30,ENE,68,4.9,8.1,24,0.00,,---,0.00,VWS V14.01,2013-05-02 19:31:00,
2013-05-02 15:36:00,77.2,37.4,30.30,East,93,4.0,8.3,24,0.00,,---,0.00,VWS V14.01,2013-05-02 19:36:00,
2013-05-02 15:41:00,77.4,37.5,30.30,SSE,150,4.0,10.5,24,0.00,,---,0.00,VWS V14.01,2013-05-02 19:41:00,
2013-05-02 15:46:00,77.4,37.5,30.30,SE,137,4.0,10.5,24,0.00,,---,0.00,VWS V14.01,2013-05-02 19:46:00,
2013-05-02 15:51:00,77.5,37.7,30.30,SE,134,4.9,10.5,24,0.00,,---,0.00,VWS V14.01,2013-05-02 19:51:00,
2013-05-02 15:56:00,77.4,37.5,30.30,SSW,201,6.3,10.5,24,0.00,,---,0.00,VWS V14.01,2013-05-02 19:56:00,
2013-05-02 16:01:00,77.2,36.2,30.30,SSW,209,4.9,7.6,23,0.00,,---,0.00,VWS V14.01,2013-05-02 20:01:00,
2013-05-02 16:06:00,77.0,37.2,30.30,East,87,4.9,8.1,24,0.00,,---,0.00,VWS V14.01,2013-05-02 20:06:00,
2013-05-02 16:11:00,76.6,36.9,30.30,SE,128,3.6,10.1,24,0.00,,---,0.00,VWS V14.01,2013-05-02 20:11:00,
2013-05-02 16:16:00,76.6,38.0,30.30,SSE,165,5.4,10.1,25,0.00,,---,0.00,VWS V14.01,2013-05-02 20:16:00,
2013-05-02 16:22:00,75.7,36.2,30.30,SSW,213,4.0,10.5,24,0.00,,---,0.00,VWS V14.01,2013-05-02 20:22:00,
2013-05-02 16:27:00,75.4,37.0,30.30,SSE,152,5.8,10.5,25,0.00,,---,0.00,VWS V14.01,2013-05-02 20:27:00,
2013-05-02 16:32:00,75.4,35.9,30.30,SSE,156,3.6,10.5,24,0.00,,---,0.00,VWS V14.01,2013-05-02 20:32:00,
2013-05-02 16:37:00,75.4,37.0,30.30,SE,129,6.3,10.5,25,0.00,,---,0.00,VWS V14.01,2013-05-02 20:37:00,
2013-05-02 16:42:00,75.0,35.6,30.30,SSE,158,6.3,10.5,24,0.00,,---,0.00,VWS V14.01,2013-05-02 20:42:00,
2013-05-02 16:47:00,75.0,36.7,30.30,SE,135,4.9,10.5,25,0.00,,---,0.00,VWS V14.01,2013-05-02 20:47:00,
2013-05-02 16:52:00,75.7,37.3,30.30,SSE,157,3.1,10.5,25,0.00,,---,0.00,VWS V14.01,2013-05-02 20:52:00,
2013-05-02 16:57:00,75.6,36.0,30.30,East,101,3.1,10.5,24,0.00,,---,0.00,VWS V14.01,2013-05-02 20:57:00,
2013-05-02 17:02:00,75.2,35.7,30.30,ESE,116,3.6,10.1,24,0.00,,---,0.00,VWS V14.01,2013-05-02 21:02:00,
2013-05-02 17:07:00,74.7,35.3,30.30,ESE,116,6.7,10.1,24,0.00,,---,0.00,VWS V14.01,2013-05-02 21:07:00,
2013-05-02 17:12:00,73.9,34.7,30.30,SSW,201,4.5,10.1,24,0.00,,---,0.00,VWS V14.01,2013-05-02 21:12:00,
2013-05-02 17:17:00,73.6,35.5,30.30,ESE,102,3.1,10.1,25,0.00,,---,0.00,VWS V14.01,2013-05-02 21:17:00,
2013-05-02 17:22:00,73.4,35.3,30.30,ENE,75,0.0,10.1,25,0.00,,---,0.00,VWS V14.01,2013-05-02 21:22:00,
2013-05-02 17:27:00,73.6,35.5,30.30,ESE,110,5.4,10.1,25,0.00,,---,0.00,VWS V14.01,2013-05-02 21:27:00,
2013-05-02 17:32:00,73.2,34.0,30.30,SW,215,5.8,12.3,24,0.00,,---,0.00,VWS V14.01,2013-05-02 21:32:00,
2013-05-02 17:37:00,73.2,35.2,30.30,SE,128,3.1,12.3,25,0.00,,---,0.00,VWS V14.01,2013-05-02 21:37:00,
2013-05-02 17:42:00,73.2,35.2,30.30,SW,215,2.7,12.3,25,0.00,,---,0.00,VWS V14.01,2013-05-02 21:42:00,
2013-05-02 17:47:00,73.4,35.3,30.30,South,175,3.1,12.3,25,0.00,,---,0.00,VWS V14.01,2013-05-02 21:47:00,
2013-05-02 17:52:00,73.4,34.2,30.30,WSW,240,5.4,12.3,24,0.00,,---,0.00,VWS V14.01,2013-05-02 21:52:00,
2013-05-02 17:57:00,73.0,35.0,30.30,East,92,5.4,12.3,25,0.00,,---,0.00,VWS V14.01,2013-05-02 21:57:00,
2013-05-02 18:02:00,72.7,34.7,30.30,South,178,3.6,6.7,25,0.00,,---,0.00,VWS V14.01,2013-05-02 22:02:00,
2013-05-02 18:07:00,72.5,34.5,30.30,SSW,202,0.0,6.7,25,0.00,,---,0.00,VWS V14.01,2013-05-02 22:07:00,
2013-05-02 18:12:00,72.1,35.3,30.30,South,171,3.1,6.7,26,0.00,,---,0.00,VWS V14.01,2013-05-02 22:12:00,
2013-05-02 18:17:00,72.0,34.1,30.27,SE,138,4.0,7.6,25,0.00,,---,0.00,VWS V14.01,2013-05-02 22:17:00,
2013-05-02 18:22:00,71.8,35.0,30.27,SSE,165,4.0,8.1,26,0.00,,---,0.00,VWS V14.01,2013-05-02 22:22:00,
2013-05-02 18:27:00,71.8,33.9,30.27,SSW,198,5.4,8.1,25,0.00,,---,0.00,VWS V14.01,2013-05-02 22:27:00,
2013-05-02 18:32:00,71.2,33.5,30.27,SE,137,4.9,8.7,25,0.00,,---,0.00,VWS V14.01,2013-05-02 22:32:00,
2013-05-02 18:37:00,71.1,34.4,30.27,SW,223,3.1,8.7,26,0.00,,---,0.00,VWS V14.01,2013-05-02 22:37:00,
2013-05-02 18:43:00,70.7,34.1,30.27,SSW,203,4.0,8.7,26,0.00,,---,0.00,VWS V14.01,2013-05-02 22:43:00,
2013-05-02 18:48:00,70.2,33.6,30.27,SSE,165,3.6,8.7,26,0.00,,---,0.00,VWS V14.01,2013-05-02 22:48:00,
2013-05-02 18:53:00,70.0,33.5,30.27,SSW,197,4.9,8.7,26,0.00,,---,0.00,VWS V14.01,2013-05-02 22:53:00,
2013-05-02 18:58:00,69.4,33.0,30.27,SSW,198,7.6,8.7,26,0.00,,---,0.00,VWS V14.01,2013-05-02 22:58:00,
2013-05-02 19:03:00,69.1,33.7,30.27,SE,138,0.0,5.4,27,0.00,,---,0.00,VWS V14.01,2013-05-02 23:03:00,
2013-05-02 19:08:00,68.7,32.4,30.27,SW,229,7.6,7.6,26,0.00,,---,0.00,VWS V14.01,2013-05-02 23:08:00,
2013-05-02 19:13:00,68.4,32.1,30.27,ESE,120,0.0,7.6,26,0.00,,---,0.00,VWS V14.01,2013-05-02 23:13:00,
2013-05-02 19:18:00,68.2,33.0,30.27,SE,128,4.0,7.6,27,0.00,,---,0.00,VWS V14.01,2013-05-02 23:18:00,
2013-05-02 19:23:00,67.8,32.7,30.27,SSE,153,2.2,8.7,27,0.00,,---,0.00,VWS V14.01,2013-05-02 23:23:00,
2013-05-02 19:28:00,67.3,32.2,30.27,SSE,164,6.3,8.7,27,0.00,,---,0.00,VWS V14.01,2013-05-02 23:28:00,
2013-05-02 19:33:00,66.9,31.9,30.27,SW,230,3.6,12.8,27,0.00,,---,0.00,VWS V14.01,2013-05-02 23:33:00,
2013-05-02 19:38:00,66.7,31.7,30.27,SE,135,2.7,12.8,27,0.00,,---,0.00,VWS V14.01,2013-05-02 23:38:00,
2013-05-02 19:43:00,66.6,31.6,30.27,WSW,257,2.2,12.8,27,0.00,,---,0.00,VWS V14.01,2013-05-02 23:43:00,
2013-05-02 19:48:00,66.2,32.2,30.27,SE,134,3.6,12.8,28,0.00,,---,0.00,VWS V14.01,2013-05-02 23:48:00,
2013-05-02 19:53:00,66.0,32.1,30.27,SSW,193,2.7,12.8,28,0.00,,---,0.00,VWS V14.01,2013-05-02 23:53:00,
2013-05-02 19:58:00,65.7,32.7,30.27,SSW,196,0.0,12.8,29,0.00,,---,0.00,VWS V14.01,2013-05-02 23:58:00,
2013-05-02 20:03:00,65.3,32.4,30.27,SSE,159,0.0,4.0,29,0.00,,---,0.00,VWS V14.01,2013-05-03 00:03:00,
2013-05-02 20:08:00,64.8,31.9,30.27,SSE,151,0.0,4.0,29,0.00,,---,0.00,VWS V14.01,2013-05-03 00:08:00,
2013-05-02 20:13:00,64.4,31.6,30.27,SE,145,0.0,4.9,29,0.00,,---,0.00,VWS V14.01,2013-05-03 00:13:00,
2013-05-02 20:18:00,64.0,32.2,30.27,South,182,0.0,5.4,30,0.00,,---,0.00,VWS V14.01,2013-05-03 00:18:00,
2013-05-02 20:23:00,63.5,31.7,30.27,ESE,114,2.7,5.4,30,0.00,,---,0.00,VWS V14.01,2013-05-03 00:23:00,
2013-05-02 20:28:00,63.1,31.4,30.27,SSE,152,0.0,5.4,30,0.00,,---,0.00,VWS V14.01,2013-05-03 00:28:00,
2013-05-02 20:33:00,63.0,31.3,30.27,ESE,102,0.0,5.4,30,0.00,,---,0.00,VWS V14.01,2013-05-03 00:33:00,
2013-05-02 20:38:00,62.6,31.0,30.27,SSW,204,2.7,5.4,30,0.00,,---,0.00,VWS V14.01,2013-05-03 00:38:00,
2013-05-02 20:43:00,62.2,31.5,30.27,SE,133,3.6,5.4,31,0.00,,---,0.00,VWS V14.01,2013-05-03 00:43:00,
2013-05-02 20:48:00,62.1,31.4,30.27,South,191,0.0,5.4,31,0.00,,---,0.00,VWS V14.01,2013-05-03 00:48:00,
2013-05-02 20:53:00,61.7,31.0,30.27,SW,219,0.0,5.4,31,0.00,,---,0.00,VWS V14.01,2013-05-03 00:53:00,
2013-05-02 20:58:00,61.3,31.6,30.27,SE,124,0.0,5.4,32,0.00,,---,0.00,VWS V14.01,2013-05-03 00:58:00,
2013-05-02 21:03:00,61.2,31.4,30.27,SSW,201,0.0,0.0,32,0.00,,---,0.00,VWS V14.01,2013-05-03 01:03:00,
2013-05-02 21:08:00,61.0,32.0,30.27,SW,217,0.0,0.0,33,0.00,,---,0.00,VWS V14.01,2013-05-03 01:08:00,
2013-05-02 21:13:00,60.6,33.3,30.27,SSW,211,0.0,0.0,36,0.00,,---,0.00,VWS V14.01,2013-05-03 01:13:00,
2013-05-02 21:18:00,60.4,33.9,30.27,SSE,153,3.1,5.4,37,0.00,,---,0.00,VWS V14.01,2013-05-03 01:18:00,
2013-05-02 21:23:00,60.4,33.9,30.27,South,176,0.0,5.4,37,0.00,,---,0.00,VWS V14.01,2013-05-03 01:23:00,
2013-05-02 21:28:00,60.1,34.3,30.27,SSE,164,0.0,5.4,38,0.00,,---,0.00,VWS V14.01,2013-05-03 01:28:00,
2013-05-02 21:33:00,59.9,34.1,30.27,SE,138,0.0,5.4,38,0.00,,---,0.00,VWS V14.01,2013-05-03 01:33:00,
2013-05-02 21:38:00,59.9,34.1,30.27,SSE,156,0.0,5.8,38,0.00,,---,0.00,VWS V14.01,2013-05-03 01:38:00,
2013-05-02 21:43:00,59.9,34.1,30.27,SE,144,0.0,5.8,38,0.00,,---,0.00,VWS V14.01,2013-05-03 01:43:00,
2013-05-02 21:48:00,59.7,34.0,30.27,SE,139,0.0,5.8,38,0.00,,---,0.00,VWS V14.01,2013-05-03 01:48:00,
2013-05-02 21:53:00,59.7,34.0,30.27,South,171,4.9,5.8,38,0.00,,---,0.00,VWS V14.01,2013-05-03 01:53:00,
2013-05-02 21:58:00,59.7,34.0,30.27,ESE,102,0.0,5.8,38,0.00,,---,0.00,VWS V14.01,2013-05-03 01:58:00,
2013-05-02 22:03:00,59.5,33.8,30.27,SSE,156,0.0,0.0,38,0.00,,---,0.00,VWS V14.01,2013-05-03 02:03:00,
2013-05-02 22:09:00,59.4,33.6,30.27,South,174,0.0,0.0,38,0.00,,---,0.00,VWS V14.01,2013-05-03 02:09:00,
2013-05-02 22:14:00,59.4,33.6,30.27,SSE,160,0.0,4.0,38,0.00,,---,0.00,VWS V14.01,2013-05-03 02:14:00,
2013-05-02 22:19:00,59.4,33.6,30.27,SE,138,3.1,5.4,38,0.00,,---,0.00,VWS V14.01,2013-05-03 02:19:00,
2013-05-02 22:24:00,59.2,33.5,30.27,SSE,148,4.0,5.4,38,0.00,,---,0.00,VWS V14.01,2013-05-03 02:24:00,
2013-05-02 22:29:00,59.0,32.6,30.27,SE,139,3.1,5.8,37,0.00,,---,0.00,VWS V14.01,2013-05-03 02:29:00,
2013-05-02 22:34:00,58.8,33.2,30.27,SSE,162,0.0,5.8,38,0.00,,---,0.00,VWS V14.01,2013-05-03 02:34:00,
2013-05-02 22:39:00,58.5,32.8,30.27,South,187,0.0,5.8,38,0.00,,---,0.00,VWS V14.01,2013-05-03 02:39:00,
2013-05-02 22:44:00,58.5,32.8,30.27,SE,129,0.0,5.8,38,0.00,,---,0.00,VWS V14.01,2013-05-03 02:44:00,
2013-05-02 22:49:00,58.1,33.2,30.27,ESE,117,0.0,5.8,39,0.00,,---,0.00,VWS V14.01,2013-05-03 02:49:00,
2013-05-02 22:54:00,58.1,33.2,30.27,SE,127,0.0,5.8,39,0.00,,---,0.00,VWS V14.01,2013-05-03 02:54:00,
2013-05-02 22:59:00,57.9,33.1,30.27,SE,134,0.0,5.8,39,0.00,,---,0.00,VWS V14.01,2013-05-03 02:59:00,
2013-05-02 23:04:00,57.7,32.9,30.27,SE,142,2.2,5.8,39,0.00,,---,0.00,VWS V14.01,2013-05-03 03:04:00,
2013-05-02 23:09:00,57.6,32.7,30.27,ESE,117,0.0,5.8,39,0.00,,---,0.00,VWS V14.01,2013-05-03 03:09:00,
2013-05-02 23:14:00,57.6,32.7,30.27,South,185,2.7,5.8,39,0.00,,---,0.00,VWS V14.01,2013-05-03 03:14:00,
2013-05-02 23:19:00,57.6,32.7,30.27,East,100,0.0,5.8,39,0.00,,---,0.00,VWS V14.01,2013-05-03 03:19:00,
2013-05-02 23:24:00,57.4,32.6,30.27,ESE,112,0.0,5.8,39,0.00,,---,0.00,VWS V14.01,2013-05-03 03:24:00,
2013-05-02 23:29:00,57.4,32.6,30.27,ESE,116,0.0,5.8,39,0.00,,---,0.00,VWS V14.01,2013-05-03 03:29:00,
2013-05-02 23:34:00,57.2,33.1,30.27,SE,130,0.0,5.8,40,0.00,,---,0.00,VWS V14.01,2013-05-03 03:34:00,
2013-05-02 23:39:00,57.2,33.1,30.27,SE,130,0.0,5.8,40,0.00,,---,0.00,VWS V14.01,2013-05-03 03:39:00,
2013-05-02 23:44:00,57.0,32.9,30.27,SE,139,0.0,5.8,40,0.00,,---,0.00,VWS V14.01,2013-05-03 03:44:00,
2013-05-02 23:49:00,56.8,32.8,30.24,SE,139,0.0,5.8,40,0.00,,---,0.00,VWS V14.01,2013-05-03 03:49:00,
2013-05-02 23:54:00,56.8,33.4,30.24,SE,131,0.0,5.8,41,0.00,,---,0.00,VWS V14.01,2013-05-03 03:54:00,
2013-05-02 23:59:00,56.7,33.3,30.24,SE,127,0.0,5.8,41,0.00,,---,0.00,VWS V14.01,2013-05-03 03:59:00,